Miscellaneous Local Product
Issued by NWS North Platte, NE

Home | Current Version | Previous Version | Text Only | Print | Product List | Glossary On
Versions: 1 2 3 4 5 6 7 8 9 10 11 12 13 14 15 16 17 18 19 20 21 22 23 24 25 26 27 28 29 30 31 32 33 34 35 36 37 38 39 40 41 42 43 44 45 46 47 48 49 50
000
AXUS43 KLBF 230410
MISLBF


WESTERN AND NORTH CENTRAL NEBRASKA HOURLY WEATHER ROUNDUP
NATIONAL WEATHER SERVICE NORTH PLATTE NE
1100 PM CDT MON SEP 22 2014

***STATIONS NOT REPORTING VARIABLES SUCH AS SKY/WEATHER OR
PRESSURE ARE PROVIDED BY THE NEBRASKA DEPARTMENT OF
ROADS...RAWS...AND APRS NETWORKS...AND ARE NOT UNDER
NATIONAL WEATHER SERVICE QUALITY CONTROL***

...OBSERVATIONS IN AND NEAR THE EASTERN PANHANDLE OF NEBRASKA...

CITY           SKY/WX    TMP DP  RH WIND       PRES   REMARKS
PINE RIDGE     MOCLDY    64  53  67 S14       29.99F
CHADRON        PTCLDY    61  55  81 NW6       29.97F
ALLIANCE       CLEAR     55  52  89 S9        30.03F
SIDNEY         MOCLDY    60  56  86 NW6       30.08F
WHITECLAY        N/A     60  51  71 SE12        N/A
RUSHVILLE        N/A     57  51  79 S9          N/A
CRESCENT LAKE    N/A     57  53  87 SE6         N/A
LISCO            N/A     63  55  77 E9          N/A
BIG SPRINGS      N/A     62  54  75 SE9         N/A
$$

...OBSERVATIONS IN NORTH CENTRAL NEBRASKA...

CITY           SKY/WX    TMP DP  RH WIND       PRES   REMARKS
VALENTINE      CLOUDY    63  54  72 S23G32    30.03F
THEDFORD       MOCLDY    58  54  84 SE10      30.09R
AINSWORTH      CLOUDY    58  55  89 S13G21    30.07F
O`NEILL        CLOUDY    63  55  77 S9        30.13F
ORD            CLOUDY    59  55  87 S8        30.12F
BROKEN BOW     CLOUDY    59  54  83 SE10      30.11S
SPRINGVIEW       N/A     59  55  88 S7G14       N/A
ROSE             N/A     60  60  99 E15         N/A
NEWPORT          N/A     60  58  92 S15         N/A
COMSTOCK         N/A     62  58  86 S16         N/A
CHAMBERS         N/A     60  54  80 S6          N/A
$$

...OBSERVATIONS IN SOUTHWEST NEBRASKA AND FAR NORTHEAST COLORADO...

CITY           SKY/WX    TMP DP  RH WIND       PRES   REMARKS
WRAY           FAIR      61  57  87 SE7       30.06S
HOLYOKE        FAIR      61  55  82 S5        30.08R
IMPERIAL       CLOUDY    62  53  72 S14       30.06R
OGALLALA       MOCLDY    61  55  78 E6        30.06S
NORTH PLATTE   CLOUDY    59  52  77 SE9       30.07S
MCCOOK         LGT RAIN  61  55  81 SE15G28   30.10F
LEXINGTON      LGT RAIN  58  56  92 SE13      30.10F
PAXTON           N/A     63  53  71 SE9         N/A
SUTHERLAND       N/A     58  49  73 E6          N/A
BRADY            N/A     58  53  85 CALM        N/A
GOTHENBURG       N/A     58  53  83 SE8         N/A
CALLAWAY         N/A     57  55  93 SE16        N/A
$$

...SOME WEATHER OBSERVATIONS FROM AROUND THE REGION...

CITY           SKY/WX    TMP DP  RH WIND       PRES   REMARKS
DENVER         PTCLDY    60  50  69 SW7       30.13S
LARAMIE        PTCLDY    51  43  74 W8        30.23S
CHEYENNE       PTCLDY    59  43  55 W17       30.16F
SCOTTSBLUFF    PTCLDY    57  56  96 SE6       30.04F
RAPID CITY     CLOUDY    63  55  75 S5        29.95S
PIERRE         CLOUDY    63  53  70 S18       29.98S
WINNER         FAIR      64  54  69 S21G26    30.03F
SIOUX FALLS    MOCLDY    61  49  64 S9        30.15S
OMAHA          CLOUDY    62  51  67 SE8       30.19S
GRAND ISLAND   CLOUDY    64  49  57 S7        30.18R
KANSAS CITY    MOCLDY    56  51  84 SE7       30.23S
WICHITA        MOCLDY    65  47  52 SE12      30.20S
HAYS           CLOUDY    68  45  42 S14       30.14F
LIBERAL        PTCLDY    70  48  46 S14       30.17S
GOODLAND       CLOUDY    61  57  87 N15G33    30.14R
$$



USA.gov is the U.S. government's official web portal to all federal, state and local government web resources and services.